Content
SEND FEEDBACK

Daily
Averages
Monthly
Summary
United States of America

LONG BEACH, WASHINGTON


Home > North America > United States > Washington
Elevation: 3 feet     Latitude: 46 22N     Longitude: 124 02W

WEATHER
 
SELECT A DAY
Number of Records: 255,128;   Date Range: 1/1/95 - 8/28/14
 
SHARE

PRINT THIS DATA

[ ← Previous Day ]
WEATHER ALMANAC - JANUARY 31, 2013
[ Next Day → ]
[ °C ]   °F
Weather ElementAverageHighLow
Temperature46.5 °F50 °F (12:55 pm)41 °F (7:28 am)
Dewpoint44.1 °F46.4 °F (7:50 pm)39.2 °F (7:28 am)
Humidity91.4 %100 % (7:50 pm)80 % (1:55 pm)
Barometer30.36 in30.44 in (1:55 am)30.33 in (5:55 pm)
Wind Speed5.2 mph12.7 mph (4:04 pm)
Wind Gust20.7 mph (4:42 pm)
Weather ElementAverage
Visibility6.7 mi
Wind DirectionSSE (156.6 °)

Weather ElementTotal
Precipitation0.12 in
Heating Degree Days19.5 (Base 65)
Averaged from 44 records on January 31, 2013
WEATHER CONDITIONS BREAKOUT
WIND DIRECTION BREAKOUT
WEATHER BY HOUR - JANUARY 31, 2013
[ °C ]   °F
Local TimeTemperatureDewpointHumidityBarometerVisibilityWind DirectionWind SpeedGust SpeedPrecipitationEventsConditions
1:55 AM48.9 °F45.0 °F86 %30.44 in10.0 miSSW (200°)6.9 mphOvercast
2:55 AM48.0 °F44.1 °F86 %30.44 in10.0 miSSW (200°)4.6 mph0.00 inRainLight Rain
3:55 AM46.0 °F43.0 °F89 %30.41 in10.0 miSE (140°)4.6 mphPartly Cloudy
4:55 AM43.0 °F41.0 °F93 %30.41 in10.0 miEast (80°)4.6 mphMostly Cloudy
5:55 AM44.1 °F42.1 °F93 %30.41 in10.0 miCalmScattered Clouds
6:55 AM42.1 °F39.9 °F92 %30.41 in10.0 miCalmPartly Cloudy
7:28 AM41.0 °F39.2 °F93 %30.41 in2.5 miCalmPartly Cloudy
7:34 AM41.0 °F39.2 °F93 %30.40 in1.5 miESE (120°)3.5 mphMostly Cloudy
7:55 AM41.0 °F39.9 °F96 %30.40 in3.0 miSE (140°)3.5 mphMostly Cloudy
8:02 AM41.0 °F39.2 °F93 %30.41 in7.0 miSSE (160°)3.5 mphMostly Cloudy
8:55 AM43.0 °F42.1 °F97 %30.41 in10.0 miCalmOvercast
9:55 AM45.0 °F43.0 °F93 %30.40 in8.0 miCalm0.04 inRainLight Rain
10:55 AM46.0 °F43.0 °F89 %30.40 in9.0 miNE (50°)3.5 mph0.01 inOvercast
11:55 AM48.0 °F45.0 °F89 %30.39 in10.0 miCalmOvercast
12:04 PM48.2 °F44.6 °F87 %30.39 in10.0 miCalmOvercast
12:55 PM50.0 °F45.0 °F83 %30.37 in10.0 miVariable4.6 mph0.00 inOvercast
1:33 PM48.2 °F44.6 °F87 %30.36 in8.0 miSW (220°)5.8 mph0.00 inRainLight Rain
1:40 PM48.2 °F44.6 °F87 %30.35 in7.0 miSouth (180°)6.9 mph0.00 inRainLight Rain
1:48 PM48.2 °F44.6 °F87 %30.35 in10.0 miSSW (200°)9.2 mph0.00 inOvercast
1:55 PM48.9 °F43.0 °F80 %30.35 in10.0 miSouth (180°)8.1 mph0.00 inOvercast
2:14 PM48.2 °F44.6 °F87 %30.35 in10.0 miWSW (250°)4.6 mphOvercast
2:55 PM48.9 °F44.1 °F83 %30.35 in10.0 miSSW (210°)9.2 mphOvercast
3:55 PM48.0 °F43.0 °F83 %30.35 in3.0 miSSW (210°)11.5 mph19.6 mph0.00 inRainLight Rain
4:04 PM46.4 °F44.6 °F93 %30.34 in2.0 miSSW (210°)12.7 mph18.4 mph0.00 inRainLight Rain
4:25 PM46.4 °F44.6 °F93 %30.34 in3.0 miSSW (200°)11.5 mph18.4 mph0.01 inOvercast
4:42 PM46.4 °F44.6 °F93 %30.34 in10.0 miSouth (190°)9.2 mph20.7 mph0.01 inOvercast
4:55 PM46.9 °F45.0 °F93 %30.34 in10.0 miSSW (200°)8.1 mph0.01 inOvercast
5:02 PM46.4 °F44.6 °F93 %30.34 in10.0 miSSW (200°)6.9 mphOvercast
5:32 PM46.4 °F44.6 °F93 %30.34 in2.5 miSSW (200°)3.5 mph0.00 inRainLight Rain
5:40 PM46.4 °F44.6 °F93 %30.34 in3.0 miSouth (190°)4.6 mph0.00 inRainLight Rain
5:55 PM46.9 °F45.0 °F93 %30.33 in2.5 miSouth (180°)4.6 mph0.00 inRainLight Rain
6:12 PM46.4 °F44.6 °F93 %30.33 in3.0 miSouth (190°)4.6 mph0.01 inRainLight Rain
6:55 PM46.9 °F45.0 °F93 %30.33 in7.0 miSouth (190°)8.1 mph0.01 inOvercast
7:50 PM46.4 °F46.4 °F100 %30.33 in7.0 miSSW (200°)5.8 mphOvercast
7:55 PM46.9 °F46.0 °F97 %30.33 in10.0 miSSW (210°)4.6 mphOvercast
8:46 PM48.2 °F46.4 °F93 %30.33 in5.0 miSSW (210°)8.1 mphOvercast
8:55 PM48.0 °F46.0 °F93 %30.33 in5.0 miSSW (210°)6.9 mphOvercast
9:12 PM48.2 °F46.4 °F93 %30.33 in4.0 miSSW (210°)5.8 mphOvercast
9:55 PM48.0 °F46.0 °F93 %30.34 in7.0 miSW (230°)4.6 mph0.00 inOvercast
10:16 PM48.2 °F46.4 °F93 %30.34 in2.5 miSW (220°)5.8 mphOvercast
10:28 PM48.2 °F46.4 °F93 %30.34 in4.0 miSW (220°)6.9 mphOvercast
10:55 PM48.0 °F46.0 °F93 %30.34 in2.5 miSW (230°)5.8 mphOvercast
11:26 PM46.4 °F46.4 °F100 %30.34 in4.0 miSW (220°)4.6 mph0.01 inOvercast
11:55 PM46.9 °F46.0 °F97 %30.35 in3.0 miWSW (240°)3.5 mph0.01 inOvercast
Hourly data recorded from KAST, located miles away from Long Beach, Washington







STORIES FROM OUR PARTNERS